COSMOS 2533

Last updated on Mon Jun 22 2026 00:03:06 GMT+0000 (Coordinated Universal Time)

1 43867U 18107A 26172.00909387 -.00000041 00000+0 00000+0 0 9993 2 43867 0.0461 99.0527 0000696 340.4839 262.9366 1.00273046 27483
UTC large
Height (km)
Speed (km/s)
/
Latitude / Longitude
Inclination (degrees)
Orbital Period (minutes)
Azimuth
Elevation
Range (km)
Doppler Factor

Next 0 passes for location: London (51.5072 / 0.1276)

No passes found over London.
COSMOS 2533